Tracking 33744 objects as of 12-Apr-2026
HD Live streaming from Space Station
objects crossing your sky now

STARLINK-36911

Track STARLINK-36911 now!
10-day predictions
STARLINK-36911 is classified as:


NORAD ID: 68008
Int'l Code: 2026-039Y
Perigee: 489.2 km
Apogee: 490.9 km
Inclination: 43.0 °
Period: 94.3 minutes
Semi major axis: 6861 km
RCS: Unknown
Launch date: February 27, 2026
Source: United States (US)
Launch site: AIR FORCE WESTERN TEST RANGE (AFWTR)
Your satellite tracking list
Your tracking list is empty




NASA's NSSDC Master Catalog

Two Line Element Set (TLE):
1 68008U 26039Y   26102.36599685  .00022868  00000-0  83703-3 0  9994
2 68008  42.9990 218.7422 0001228 268.4594  91.6117 15.27616022  6850
Source of the keplerian elements: AFSPC